Content
SEND FEEDBACK

Daily
Averages
Monthly
Summary
United States of America

LAKE TAHOE, NEVADA


Home > North America > United States > Nevada
Elevation: 6241 feet     Latitude: 38 58N     Longitude: 119 57W

WEATHER
 
SELECT A DAY
Number of Records: 176,955;   Date Range: 1/1/95 - 10/19/14
 
SHARE

PRINT THIS DATA

[ ← Previous Day ]
WEATHER ALMANAC - JANUARY 1, 2013
[ Next Day → ]
[ °C ]   °F
Weather ElementAverageHighLow
Temperature16.2 °F37.4 °F (1:13 pm)3 °F (4:53 am)
Dewpoint3.8 °F12 °F (9:53 am)-4 °F (2:53 pm)
Humidity63.9 %83 % (9:53 pm)18 % (2:53 pm)
Barometer30.34 in30.54 in (7:53 pm)30.17 in (2:53 am)
Wind Speed2.8 mph12.7 mph (12:53 pm)
Wind Gust21.9 mph (1:13 pm)
Weather ElementAverage
Visibility9.7 mi
Wind DirectionENE (52.6 °)

Weather ElementTotal
Precipitation---
Heating Degree Days44.8 (Base 65)
Averaged from 23 records on January 1, 2013
WEATHER CONDITIONS BREAKOUT
WIND DIRECTION BREAKOUT
WEATHER BY HOUR - JANUARY 1, 2013
[ °C ]   °F
Local TimeTemperatureDewpointHumidityBarometerVisibilityWind DirectionWind SpeedGust SpeedPrecipitationEventsConditions
1:53 AM9.0 °F3.0 °F77 %30.20 in10.0 miCalmClear
2:53 AM7.0 °F1.0 °F77 %30.17 in8.0 miSW (220°)3.5 mphClear
3:53 AM7.0 °F0.0 °F73 %30.22 in10.0 miCalmClear
4:53 AM3.0 °F-2.0 °F80 %30.26 in9.0 miSouth (190°)4.6 mphPartly Cloudy
5:53 AM7.0 °F1.0 °F77 %30.28 in10.0 miCalmMostly Cloudy
6:53 AM7.0 °F1.0 °F77 %30.31 in10.0 miCalmClear
7:53 AM5.0 °F0.0 °F80 %30.34 in10.0 miCalmClear
8:53 AM10.0 °F5.0 °F80 %30.34 in10.0 miCalmClear
9:53 AM21.0 °F12.0 °F68 %30.33 in10.0 miCalmClear
10:53 AM27.0 °F10.0 °F49 %30.32 in10.0 miSouth (170°)5.8 mphClear
11:53 AM33.1 °F9.0 °F37 %30.26 in10.0 miVariable6.9 mphClear
12:53 PM37.0 °F3.0 °F24 %30.24 in10.0 miNE (40°)12.7 mph16.1 mphClear
1:13 PM37.4 °F-0.4 °F20 %30.17 in10.0 miNE (40°)12.7 mph21.9 mphClear
2:53 PM36.0 °F-4.0 °F18 %30.27 in10.0 miVariable6.9 mphClear
3:53 PM28.0 °F8.1 °F43 %30.35 in10.0 miNorth (360°)8.1 mphClear
4:53 PM25.0 °F9.0 °F51 %30.43 in10.0 miCalmClear
5:53 PM19.9 °F10.0 °F65 %30.46 in10.0 miCalmClear
6:53 PM15.1 °F8.1 °F74 %30.51 in10.0 miCalmClear
7:53 PM10.0 °F3.9 °F76 %30.54 in10.0 miCalmClear
8:53 PM10.0 °F5.0 °F80 %30.53 in10.0 miCalmClear
9:53 PM6.1 °F1.9 °F83 %30.48 in10.0 miCalmClear
10:53 PM7.0 °F1.9 °F80 %30.44 in9.0 miSouth (190°)3.5 mphClear
11:53 PM5.0 °F0.0 °F80 %30.40 in8.0 miCalmClear
Hourly data recorded from KTVL, located miles away from Lake Tahoe, Nevada







STORIES FROM OUR PARTNERS